{"data":{"norad_id":66984,"intl_designator":"2025-288AB","name":"STARLINK-35591","alt_names":[],"object_type":"PAYLOAD","status":"ACTIVE","operator":null,"country":"US","launch_date":"2025-12-08","launch_site_code":"AFETR","launch_vehicle":null,"mission":null,"orbit_class":"UNKNOWN","rcs_meters":null,"size_class":null,"mass_kg":null,"dimensions":null,"purposes":["comms"],"wikipedia_slug":null,"has_3d_model":false,"image_url":null,"decayed_at":null,"tle_current":{"epoch":"2026-05-25T04:31:12.726336Z","epoch_age_seconds":55861,"freshness":"FRESH","line1":"1 66984U 25288AB  26145.18834174  .00015578  00000+0  57427-3 0  9995","line2":"2 66984  43.0022 311.7081 0002922 269.3964  90.6553 15.27587362 26980","mean_motion":15.27587362,"eccentricity":0.0002922,"inclination_deg":43.0022,"raan_deg":311.7081,"arg_perigee_deg":269.3964,"mean_anomaly_deg":90.6553,"bstar":0.00057427,"rev_number":2698,"period_min":94.266294407848,"perigee_km":481.02221951583,"apogee_km":485.03188378761,"semimajor_km":6861.1640516517,"source":"CELESTRAK","updated_at":"2026-05-25T13:38:21.428233Z"}}}